This is the latest recevied weather packets stored in our database for station/object KC8YVF-1. If no packets are shown the sender has not sent any weather packets the latest 10 day(s).
| Time | Temp. | Humidity | Pressure | Rain* | Wind** | Luminosity | Snow |
|---|---|---|---|---|---|---|---|
| 1777726432 | 5.56° C | 70% | 1005 hPa | 0 mm | - | - | - |
| 1777726211 | 5.56° C | 71% | 1005 hPa | 0 mm | - | - | - |
| 1777725910 | 5° C | 72% | 1005 hPa | 0 mm | - | - | - |
| 1777725610 | 5° C | 72% | 1005 hPa | 0 mm | - | - | - |
| 1777725533 | 5° C | 73% | 1005 hPa | 0 mm | - | - | - |
| 1777725311 | 4.44° C | 72% | 1005 hPa | 0 mm | - | - | - |
| 1777725012 | 4.44° C | 73% | 1005 hPa | 0 mm | - | - | - |
| 1777724711 | 4.44° C | 74% | 1005.3 hPa | 0 mm | - | - | - |
| 1777724632 | 4.44° C | 74% | 1005.2 hPa | 0 mm | - | - | - |
| 1777724411 | 3.89° C | 74% | 1005 hPa | 0 mm | - | - | - |
| 1777724110 | 3.33° C | 75% | 1005.1 hPa | 0 mm | - | - | - |
| 1777723733 | 3.33° C | 76% | 1005 hPa | 0 mm | - | - | - |
| 1777723512 | 2.78° C | 76% | 1005 hPa | 0 mm | - | - | - |
| 1777723210 | 2.22° C | 76% | 1005.1 hPa | 0 mm | - | - | - |
| 1777722833 | 1.11° C | 77% | 1005 hPa | 0 mm | - | - | - |
| 1777722612 | 1.11° C | 77% | 1005 hPa | 0 mm | - | - | - |
| 1777722311 | 0.56° C | 77% | 1005 hPa | 0 mm | - | - | - |
| 1777721934 | 0° C | 76% | 1005 hPa | 0 mm | - | - | - |
| 1777721710 | 0° C | 76% | 1005 hPa | 0 mm | - | - | - |
| 1777721412 | 0° C | 75% | 1005 hPa | 0 mm | - | - | - |
| 1777721034 | 0° C | 75% | 1004.7 hPa | 0 mm | - | - | - |
| 1777720510 | -0.56° C | 74% | 1005 hPa | 0 mm | - | - | - |
| 1777720211 | -0.56° C | 74% | 1004.9 hPa | 0 mm | - | - | - |
| 1777720132 | -0.56° C | 74% | 1005 hPa | 0 mm | - | - | - |
| 1777719910 | -0.56° C | 74% | 1005 hPa | 0 mm | - | - | - |
* Rain latest hour (hover to see other rain measurements)
** Current wind speed in m/s (hover to see current wind gust speed)